RH
34 34 35 26 23 25 17 10 10 10 11 11 12 12 11 11 12 16 22 24 23 21 16 14 13 12 10 8 5 4 4 4 3 4 5 6 6 5 7 8 6 7 9 7 6 6 6 7 6 6 6 7 7 8 9 10 12 14 15 16 17 17 17 18 17 18 19 20 24 28 26 25 29 32 33 35 37 38 39 38 36 35 38 44 46
46 48 47 32 29 38 36 26 16 9 10 11 11 12 12 12 12 13 18 23 23 21 18 14 13 12 10 8 6 4 3 3 3 3 4 5 7 6 6 7 7 6 7 6 6 6 6 7 7 7 7 7 7 7 8 8 9 10 11 12 13 14 15 16 17 18 20 22 23 27 30 32 34 34 33 33 33 33 32 29 26 24 22 27 38
62 63 53 34 34 47 52 50 34 14 9 10 10 11 11 11 12 12 14 19 21 20 18 15 12 11 10 8 5 4 3 3 2 3 4 4 6 7 6 7 7 6 6 6 6 6 6 7 7 7 7 7 7 8 8 8 9 9 9 9 10 10 11 12 12 12 13 14 15 16 19 20 21 21 20 18 18 18 18 18 16 15 14 12 17
67 64 52 41 45 53 54 53 38 18 12 12 9 9 11 11 11 12 11 14 18 19 18 17 13 11 11 8 6 4 3 3 2 2 3 4 5 6 7 7 7 6 6 6 6 7 7 7 7 7 7 7 8 8 8 8 9 9 9 10 10 10 11 11 11 11 10 10 11 11 12 12 13 13 13 13 13 13 13 13 13 13 13 12 11
69 65 60 55 52 46 44 47 41 26 17 16 14 9 8 10 10 10 11 11 13 15 15 16 14 12 11 9 6 5 3 3 3 3 2 3 5 5 6 7 7 7 6 6 6 7 7 8 8 8 8 8 8 8 8 9 9 9 9 10 10 10 10 11 10 10 10 10 11 11 11 12 12 12 12 13 13 13 13 13 13 13 13 12 11
68 64 61 60 54 42 40 45 43 32 20 23 32 22 8 9 10 9 11 10 10 13 13 14 14 12 12 10 7 5 4 3 2 3 3 3 4 5 6 7 8 8 8 7 7 7 7 8 8 8 9 9 9 9 9 9 9 9 9 9 9 10 10 10 10 10 10 11 11 11 11 11 12 11 11 11 11 11 11 11 11 11 11 11 11
73 69 66 71 71 60 54 51 46 42 28 23 34 27 7 9 16 12 10 12 11 10 11 12 13 12 11 10 9 6 4 4 3 2 3 3 3 4 5 6 8 9 9 8 7 7 7 8 8 9 11 12 12 13 12 12 11 11 11 11 10 11 11 11 12 12 12 12 12 13 13 13 14 14 13 13 14 13 13 14 13 13 13 13 14
82 75 70 75 76 65 59 56 51 52 41 27 33 30 13 15 25 18 9 11 14 13 12 11 11 11 11 10 10 8 6 4 3 3 3 3 3 4 4 6 7 9 10 10 9 9 9 9 11 12 13 15 16 16 15 15 15 15 15 15 14 14 15 15 16 16 16 17 17 17 17 18 18 18 18 18 19 18 17 17 17 17 17 17 18
86 80 70 69 67 57 52 52 50 50 43 36 40 37 18 13 23 24 15 9 11 12 12 13 10 9 11 11 10 9 8 6 4 3 3 3 3 4 4 5 6 7 9 11 11 11 11 12 13 14 16 17 18 18 18 18 18 19 19 19 20 19 20 21 21 21 21 21 21 21 22 22 21 21 22 22 22 22 20 19 20 19 19 20 20
83 85 78 73 69 62 55 54 56 55 50 47 51 45 28 17 25 38 32 14 8 9 9 10 11 10 10 11 11 10 8 7 6 4 3 3 3 3 3 4 5 6 8 11 12 12 12 13 14 15 17 18 19 19 20 21 21 21 22 23 23 23 24 25 25 25 24 24 24 24 24 25 23 22 24 25 25 25 23 22 21 21 20 21 21
75 80 82 80 75 71 67 60 58 57 55 59 66 64 50 38 37 45 40 18 4 7 9 7 8 10 9 9 10 10 10 8 7 6 4 3 3 4 3 3 3 5 6 8 11 13 13 13 13 15 17 19 20 20 21 22 22 22 22 23 24 25 26 25 25 24 25 25 26 26 27 26 26 26 26 27 29 31 31 29 27 26 26 26 25
63 70 78 80 77 78 80 74 64 59 59 65 73 73 65 56 47 48 55 42 14 3 9 11 9 8 9 9 9 9 9 9 7 6 5 4 4 3 4 4 4 4 5 6 10 12 13 13 13 15 17 18 20 21 22 22 22 22 22 22 23 25 25 24 23 22 22 24 25 27 27 27 28 29 29 30 34 37 38 37 36 35 35 33 32
51 58 68 73 74 78 82 81 77 75 79 83 84 78 69 65 58 53 62 67 47 24 14 10 8 8 7 8 9 9 9 9 8 8 6 5 5 4 4 4 4 4 4 5 8 10 12 14 14 15 17 19 20 21 21 22 22 22 22 22 23 23 22 22 21 20 18 19 19 20 21 22 24 26 28 30 34 36 37 38 39 38 37 35 33
48 47 54 63 70 73 75 77 78 82 87 87 83 77 71 70 70 62 56 58 60 54 39 23 18 16 11 9 8 8 10 9 8 9 8 6 5 4 4 4 5 5 5 5 7 8 10 12 14 15 17 18 20 21 21 21 21 21 21 22 22 22 21 21 19 18 16 15 15 15 14 15 16 17 20 23 26 28 29 31 31 30 31 29 27
52 46 45 50 58 65 68 69 71 74 81 81 80 84 87 84 80 74 62 54 55 58 54 48 43 37 30 21 12 7 8 9 9 9 9 8 7 5 4 4 4 5 5 5 5 6 7 9 11 13 16 17 19 20 21 21 20 20 20 20 21 21 20 20 18 17 16 14 14 13 13 13 13 13 14 15 16 18 19 20 20 20 20 20 18
49 49 46 43 45 52 59 63 63 63 69 77 82 86 92 93 88 82 74 67 65 62 56 53 55 57 54 43 28 16 8 6 8 9 8 9 8 6 6 5 5 6 6 6 6 5 6 7 8 9 12 15 17 17 18 18 18 18 18 18 20 20 19 19 17 16 15 14 14 13 13 12 12 12 12 12 12 13 14 14 15 14 15 14 14
39 42 44 43 42 44 49 55 61 62 61 67 74 75 80 89 91 89 85 80 76 71 63 56 56 62 64 56 44 32 18 8 7 8 8 9 8 8 7 5 5 6 6 6 7 7 7 6 6 7 8 10 12 13 14 14 14 15 16 16 16 17 18 18 16 15 14 13 12 11 11 11 11 11 11 11 11 11 11 12 13 12 12 12 12
30 31 34 37 40 43 46 49 61 72 70 65 64 67 77 87 88 87 90 89 84 77 72 69 67 67 67 60 49 43 36 23 13 7 6 7 8 8 8 7 6 6 6 7 7 7 8 8 6 7 7 7 8 9 9 10 10 10 11 12 13 14 16 16 14 14 13 12 11 11 10 10 10 10 10 10 10 10 9 9 10 9 10 11 11
24 25 26 28 31 36 40 42 50 62 66 63 61 62 73 87 92 89 88 89 90 87 81 79 76 72 70 66 56 49 47 40 29 19 11 8 7 7 7 7 7 6 5 6 7 6 7 7 7 7 7 7 7 7 7 7 7 8 8 8 9 11 13 12 10 10 10 10 10 10 10 10 10 9 9 9 8 8 7 7 7 6 7 8 9
22 22 22 22 24 27 30 32 35 39 43 52 58 59 64 77 84 84 84 85 87 90 88 83 78 73 71 69 63 56 52 49 42 30 17 7 5 10 11 7 7 9 8 6 7 7 6 6 6 6 7 7 7 7 7 6 6 7 7 7 7 8 9 8 8 7 7 6 7 8 8 8 8 7 7 7 6 6 6 6 6 5 5 5 6
21 20 19 18 19 20 22 24 27 27 29 37 45 50 61 74 78 77 78 77 78 84 89 87 82 78 72 68 66 60 51 44 39 35 32 24 19 26 29 16 4 5 7 7 7 7 6 7 7 7 7 7 7 6 7 7 6 7 7 7 7 7 6 6 6 6 6 6 6 6 6 6 6 7 6 6 6 6 6 6 6 6 6 5 5
18 18 18 16 16 16 17 20 23 23 22 25 28 30 39 54 70 82 85 79 75 80 87 89 89 88 83 77 72 65 57 53 54 61 71 67 53 50 52 41 24 15 10 6 7 8 7 6 7 7 7 7 7 7 6 6 6 6 7 7 6 6 6 6 6 6 6 6 6 6 6 6 5 6 6 6 6 6 6 7 6 6 6 6 5
14 14 14 14 14 14 14 15 18 19 18 19 20 19 16 19 37 66 85 86 81 82 87 89 91 94 93 88 82 76 73 74 76 79 83 77 63 59 61 59 51 38 21 9 4 5 7 7 6 7 7 7 7 7 6 6 6 6 6 6 5 5 5 5 5 5 5 6 6 6 6 5 5 5 6 6 6 7 6 6 7 6 6 6 5
11 11 12 12 12 12 12 12 12 13 15 15 14 14 13 8 10 26 47 60 65 71 83 90 90 92 95 93 90 87 84 82 81 80 75 67 62 63 64 61 55 44 32 25 17 8 5 6 6 6 6 6 6 6 6 6 6 5 5 5 5 5 5 5 5 5 5 5 5 5 5 5 5 6 6 6 6 6 6 7 7 6 6 6 6
11 11 10 10 10 10 9 10 11 11 11 12 12 11 11 10 8 8 14 23 30 42 64 82 88 89 91 92 94 94 90 85 85 84 80 77 76 74 68 63 57 47 40 38 32 17 7 6 6 5 5 6 6 6 6 5 5 5 5 5 5 4 5 5 5 4 5 5 5 5 5 6 6 5 6 6 6 6 7 7 6 6 6 6 6
11 11 10 10 10 10 9 8 9 10 10 10 11 12 10 10 11 9 9 10 11 17 35 57 71 79 85 87 90 91 90 88 90 92 92 90 90 87 77 67 61 55 47 40 33 23 14 9 7 6 6 5 4 5 6 5 5 5 5 5 5 5 5 5 5 5 5 5 5 5 6 6 6 6 6 6 6 7 7 7 7 7 7 6 6
13 11 11 11 10 10 10 9 8 8 9 8 9 11 11 10 10 11 11 11 9 8 14 25 37 54 71 82 83 83 82 80 82 90 94 91 89 91 89 82 75 69 61 49 38 30 24 15 8 7 11 12 9 6 6 6 6 6 6 6 6 6 6 6 6 5 5 5 6 6 6 6 6 6 7 7 7 7 7 7 6 6 6 6 6
16 15 13 12 11 11 10 11 10 9 8 8 8 10 11 12 12 12 12 13 12 11 11 12 14 24 43 60 69 76 81 79 76 80 86 86 85 86 87 88 87 84 77 63 46 33 27 22 15 12 15 18 15 9 6 7 7 7 7 6 6 6 7 6 6 6 6 6 6 6 6 7 7 7 7 7 7 7 7 7 7 7 6 5 5
19 18 17 15 14 13 11 11 11 11 10 9 8 8 10 11 11 14 18 20 19 18 17 16 14 13 18 27 39 53 70 79 79 78 79 80 81 80 81 84 87 86 85 79 63 45 35 30 29 30 30 31 29 20 10 7 8 9 8 7 6 6 5 5 7 7 7 7 7 7 7 7 7 8 8 8 9 9 8 8 9 9 9 8 8
22 21 21 19 17 16 14 13 12 11 11 11 10 9 9 9 8 13 22 29 30 28 24 23 23 21 17 17 20 27 40 56 66 69 69 69 68 67 69 74 78 82 88 90 83 69 53 40 40 49 52 49 44 30 14 9 15 18 14 8 6 7 8 9 9 8 8 8 8 8 9 9 11 13 14 13 13 12 10 10 11 13 14 16 16
22 21 21 21 20 19 17 16 15 14 13 12 12 11 10 10 9 10 17 27 35 37 34 31 30 29 26 24 23 21 22 30 39 45 50 54 55 54 56 59 65 75 88 94 91 83 70 54 47 51 52 46 40 29 20 22 26 22 14 10 10 11 10 9 11 14 17 17 16 13 13 14 18 21 22 19 17 15 14 14 14 16 19 22 24
19 20 20 20 21 21 20 19 18 17 15 14 14 12 11 11 11 10 12 18 26 34 38 40 39 36 32 31 32 31 27 25 25 28 32 39 44 45 46 48 52 59 70 80 84 83 78 66 55 51 47 43 41 38 35 32 26 17 14 15 15 14 13 17 25 32 37 40 37 28 21 22 29 33 30 24 21 20 20 19 19 19 22 24 26
16 17 17 18 18 19 19 19 19 18 18 16 15 15 13 12 11 11 11 12 15 21 31 40 45 45 40 36 36 37 37 33 29 27 25 27 33 37 39 44 48 49 52 60 71 80 82 76 67 60 51 47 52 55 47 34 24 23 27 30 29 30 32 36 42 47 50 52 47 37 31 35 42 42 35 30 28 25 20 19 21 23 25 27 29
14 14 15 16 16 16 17 17 18 18 18 18 17 16 16 14 13 12 12 12 12 13 19 27 36 43 46 45 42 40 40 40 39 36 30 25 27 32 35 41 47 46 43 46 55 68 78 81 80 73 62 56 62 65 55 39 31 32 37 42 46 48 50 51 52 52 52 51 46 40 39 42 45 45 43 43 45 42 39 42 48 49 46 42 39
10 11 12 13 14 14 14 15 15 16 16 17 17 17 16 16 15 14 13 12 12 12 13 15 21 29 38 44 46 45 43 42 42 42 38 31 28 29 32 38 45 44 39 38 42 50 61 73 80 80 73 68 71 73 66 54 45 42 42 45 48 48 49 49 47 45 45 46 43 43 45 47 53 61 64 62 62 64 68 73 75 71 65 59 53
9 9 10 10 11 12 12 13 13 14 14 15 15 16 16 16 16 15 15 14 13 13 12 12 13 16 22 31 39 45 49 49 46 43 39 36 33 30 29 34 40 40 37 36 36 37 42 54 68 78 79 76 74 76 77 73 66 61 58 56 54 53 52 49 47 45 44 42 42 50 58 63 70 79 79 75 75 78 78 78 75 70 70 71 68
8 8 8 8 9 9 10 11 11 11 12 12 13 13 14 15 15 15 16 15 14 14 13 12 12 11 13 17 25 34 42 48 49 45 40 38 38 34 31 31 35 36 35 35 36 34 32 35 48 65 78 81 76 73 76 78 75 71 67 64 63 61 58 57 57 54 48 44 52 65 73 76 82 87 86 82 83 82 79 78 75 71 70 73 71
7 7 7 7 7 8 8 9 9 10 10 11 11 11 12 12 13 14 14 15 15 15 14 14 14 13 11 12 14 19 26 34 39 41 40 38 36 34 32 31 31 32 31 31 32 33 30 27 29 40 59 76 81 77 73 73 72 69 66 64 62 61 61 64 64 59 54 59 69 75 77 79 83 84 81 80 81 79 76 77 77 73 69 70 70
5 5 5 6 6 6 7 7 8 8 9 9 9 10 10 10 11 12 12 13 13 14 14 15 14 14 13 12 11 12 14 19 24 29 33 33 32 32 31 30 29 29 29 26 25 26 28 27 24 23 33 51 69 78 78 75 72 70 68 65 61 59 60 64 67 68 69 70 69 68 71 76 75 69 67 72 76 77 76 75 75 73 70 68 67
5 5 5 5 5 5 6 6 6 7 7 8 8 8 9 9 9 10 10 11 11 12 13 13 14 14 14 14 13 12 11 12 14 17 22 26 27 27 27 27 27 28 28 26 22 19 20 23 23 20 20 28 41 54 64 71 73 71 70 68 65 63 64 66 71 75 74 67 62 61 63 65 63 60 59 61 66 73 79 80 78 74 71 66 61
6 5 5 5 4 4 5 5 5 5 6 6 7 7 7 8 8 8 9 9 9 10 10 11 11 12 13 13 14 13 12 12 11 12 14 17 20 22 23 23 23 24 26 27 25 21 19 21 24 24 21 21 27 35 45 55 60 62 65 70 70 67 67 69 70 69 64 58 57 57 52 44 38 37 41 48 56 66 78 85 83 78 71 63 57
5 5 5 5 4 4 4 4 4 4 5 5 5 6 6 6 7 7 7 8 8 9 9 9 9 10 11 11 12 13 13 13 12 12 11 12 14 17 19 19 19 18 19 22 26 27 24 23 29 32 27 24 27 35 43 50 53 52 55 62 65 62 60 60 59 56 52 50 50 51 48 41 32 26 29 39 48 59 72 81 81 78 74 68 62
4 4 4 4 4 4 4 4 3 3 4 4 4 4 4 5 5 5 6 6 7 7 7 8 8 9 9 9 10 11 12 12 12 12 12 12 12 13 15 16 15 15 14 15 20 25 26 25 29 36 38 37 39 43 46 50 56 56 51 47 46 47 50 53 52 50 48 47 47 45 43 41 36 30 28 31 35 44 57 69 71 71 74 75 73
5 4 4 4 4 4 3 3 3 3 3 3 3 3 3 4 4 4 4 5 6 6 7 7 7 8 8 8 8 9 9 10 11 11 11 12 12 12 12 13 13 13 13 12 12 17 23 25 27 33 40 44 49 53 51 47 51 57 54 43 35 35 40 43 42 41 41 41 41 41 38 37 35 32 29 30 33 36 46 61 70 70 68 69 71
5 5 4 4 4 4 4 4 3 3 3 3 3 3 3 3 3 3 3 4 4 4 5 6 6 6 7 7 7 8 8 8 9 10 10 11 11 11 11 12 12 11 12 12 10 10 15 20 23 30 38 43 47 55 59 54 48 48 47 41 35 36 41 41 36 32 32 35 37 39 38 36 34 31 28 30 34 34 39 52 63 66 70 76 77
6 5 5 5 5 4 5 5 4 4 4 3 3 3 3 3 3 3 3 3 3 3 4 4 4 5 6 6 6 7 7 7 8 8 8 9 10 10 10 11 11 10 11 11 10 9 10 12 16 24 35 43 46 50 56 60 58 53 49 43 40 43 51 55 50 42 38 39 42 44 44 41 38 33 31 32 37 43 52 61 65 68 78 84 76
16 12 8 7 5 5 5 5 5 4 5 4 3 3 3 2 3 2 2 2 3 2 3 3 3 3 4 5 5 5 6 6 7 7 7 7 8 9 9 9 10 10 10 10 10 10 9 10 11 14 23 35 44 47 50 54 58 58 57 54 50 51 58 65 65 58 51 50 51 52 53 51 45 41 40 43 47 54 66 76 77 76 78 74 63
39 32 26 19 12 8 7 7 6 6 6 5 5 5 4 3 3 3 3 2 3 2 2 3 3 3 3 3 4 5 5 5 6 6 7 7 7 7 8 8 8 9 9 9 10 10 9 9 9 10 14 23 33 40 45 47 50 54 58 59 58 57 59 65 68 67 62 59 58 58 58 56 52 49 52 58 60 63 70 76 77 76 75 70 62
51 48 44 38 30 23 18 14 10 8 8 6 6 7 6 5 4 3 3 4 6 5 3 2 2 3 3 3 3 3 4 4 4 5 6 6 6 7 7 7 8 8 8 8 9 9 9 10 9 8 10 14 21 30 36 37 38 45 54 59 60 60 60 63 68 72 70 66 65 66 67 65 61 57 56 57 57 58 60 62 62 62 63 59 52
56 55 52 48 44 40 36 30 23 18 14 11 9 8 8 6 6 8 11 14 13 7 4 4 4 3 3 4 3 3 3 3 4 4 5 5 5 6 6 6 7 7 7 7 8 8 8 9 9 9 9 10 13 20 26 27 27 34 47 57 60 61 63 66 71 75 75 74 74 75 74 70 66 61 56 53 51 48 47 47 46 45 44 42 38
62 61 58 53 47 43 39 37 34 31 28 24 21 17 14 11 10 12 18 24 20 10 4 6 8 6 5 6 5 3 3 3 3 3 4 4 4 5 6 6 6 6 7 7 7 8 7 7 8 9 8 9 10 13 16 18 19 27 44 60 68 69 71 74 77 78 79 80 83 83 80 75 68 58 50 45 43 41 39 39 40 39 37 36 34
Wind_Speed
19 19 18 18 18 20 21 20 19 16 14 13 12 12 12 14 15 16 16 15 14 13 13 11 10 10 10 9 9 9 8 8 8 8 8 8 7 7 7 7 7 7 7 7 6 6 7 6 6 7 8 8 9 9 9 10 10 10 10 9 9 8 8 8 8 8 8 8 8 8 9 10 10 11 11 11 12 12 13 14 14 13 13 14 18
21 19 18 18 18 18 19 20 20 18 15 13 12 12 12 13 14 16 17 16 15 14 14 13 12 11 11 10 10 10 10 9 9 9 9 9 8 8 8 7 7 7 7 7 7 7 7 7 7 7 7 7 8 8 9 9 10 10 10 10 10 10 10 10 10 10 10 10 10 11 11 12 13 13 13 13 13 14 15 16 16 16 15 14 16
22 20 19 20 19 19 19 19 20 20 18 16 14 13 13 13 13 15 16 17 17 16 15 14 13 12 12 11 11 11 11 10 10 10 10 10 9 9 8 8 7 8 8 8 8 8 8 8 8 8 7 7 7 8 8 8 9 9 9 10 10 10 11 11 11 11 11 11 11 12 13 14 14 14 14 15 15 15 16 17 17 18 18 17 16
22 21 21 21 20 20 20 19 21 21 20 18 16 15 14 14 14 14 15 17 17 17 16 15 14 14 13 13 12 12 11 11 11 11 11 11 11 10 9 9 8 8 8 9 9 9 8 8 8 8 8 8 8 8 8 8 8 8 9 9 9 9 10 10 10 10 10 11 11 11 12 12 13 13 14 14 14 15 16 17 18 18 19 19 17
21 20 22 21 19 20 20 20 21 21 20 20 18 17 16 15 15 15 15 16 17 17 17 16 16 16 15 15 14 13 12 12 11 11 12 12 12 11 11 10 9 9 9 10 10 10 9 9 9 8 8 8 8 9 9 9 9 9 9 10 10 10 10 10 10 10 10 11 11 11 12 12 13 13 14 14 15 16 16 17 18 19 19 20 19
21 21 22 22 21 21 21 20 20 20 21 21 20 19 18 17 17 17 16 16 16 17 17 17 17 17 17 17 15 14 13 13 12 12 12 13 13 12 12 11 11 11 11 11 11 11 10 10 9 9 8 8 9 9 9 10 10 10 10 11 11 11 11 11 11 11 11 11 12 12 12 12 13 14 14 14 14 15 15 16 18 19 20 20 20
21 22 23 24 24 23 20 19 19 20 21 22 22 21 20 19 18 18 18 17 16 16 17 18 18 19 19 18 17 15 14 13 13 13 13 13 14 14 13 13 13 12 12 12 12 12 12 11 10 10 9 9 9 9 10 10 10 10 11 11 11 11 11 10 10 10 10 10 10 10 10 10 11 12 12 11 12 12 11 12 14 16 17 17 18
23 24 23 23 23 22 20 20 21 22 22 23 22 22 22 21 20 20 20 18 17 17 17 18 18 19 19 19 18 17 15 14 14 13 13 14 14 15 15 14 14 13 13 12 12 13 13 12 12 11 10 10 10 10 10 10 10 10 10 10 10 10 10 10 10 10 9 9 9 9 8 8 9 10 10 9 9 9 10 11 12 14 15 15 15
19 22 22 21 21 21 21 22 23 23 24 25 25 24 24 23 22 22 21 19 18 18 17 18 18 18 19 19 18 18 17 16 15 15 15 15 15 15 15 15 15 14 14 13 13 13 14 13 13 12 11 11 11 11 10 10 10 10 10 10 10 10 10 10 10 10 10 9 9 9 8 9 9 9 9 8 8 9 10 11 12 13 14 15 16
12 15 18 20 21 21 21 22 22 22 23 25 24 24 23 22 22 23 22 20 20 18 17 17 18 18 18 18 19 19 18 17 17 17 16 15 15 15 15 16 16 15 15 14 14 14 14 14 13 13 12 12 12 12 11 11 11 11 11 11 11 10 10 11 11 11 10 10 10 10 9 10 10 10 9 8 7 8 10 11 12 13 13 14 16
15 14 16 18 21 21 21 22 22 21 22 23 22 22 23 22 23 24 23 22 21 20 18 18 18 18 18 18 19 19 19 19 18 18 18 17 16 15 15 15 16 16 16 15 15 15 15 15 14 14 13 13 13 13 13 13 13 13 12 12 11 11 11 12 12 11 11 10 10 10 10 10 11 10 10 9 8 8 9 10 11 12 13 13 14
21 19 17 18 20 20 20 20 22 23 24 24 22 23 23 23 24 25 24 24 24 21 20 19 19 19 19 19 19 19 19 19 19 20 20 20 18 16 15 14 15 15 16 16 16 16 16 15 15 14 14 14 14 14 14 14 14 14 14 12 12 12 12 12 12 12 11 11 11 11 12 11 11 11 11 10 9 9 10 10 11 11 12 13 14
26 24 23 22 23 22 19 19 21 24 26 24 22 23 25 24 24 24 25 26 25 22 21 21 20 20 20 20 20 19 19 20 20 21 22 22 22 19 17 15 15 15 16 17 17 17 17 16 16 15 15 15 15 16 16 16 16 16 15 14 13 13 13 13 13 14 13 12 12 13 14 13 12 12 13 11 11 12 12 13 13 13 14 14 15
30 29 28 28 27 26 24 24 24 24 23 22 21 24 27 26 23 22 25 27 27 24 23 23 22 21 22 22 21 21 21 21 21 22 23 24 25 23 20 18 16 15 15 16 17 18 18 17 17 16 16 16 17 17 18 18 18 17 16 15 15 15 15 15 15 16 16 15 14 15 16 15 14 14 15 15 14 14 15 16 16 17 17 17 16
34 33 33 32 32 31 29 29 28 26 24 23 22 24 26 26 23 22 24 27 27 25 24 24 24 24 24 24 23 22 22 23 22 22 23 25 27 26 24 21 19 17 16 16 17 18 18 18 18 18 18 18 19 19 20 21 21 20 18 18 18 18 17 17 18 18 18 18 17 17 17 17 17 17 17 18 18 18 18 18 19 20 20 18 17
38 38 37 36 36 35 33 32 32 30 27 26 25 24 24 24 24 25 25 25 25 25 25 26 26 25 25 25 24 23 23 24 24 24 24 26 28 28 26 24 23 21 19 18 18 18 19 19 19 19 20 20 21 22 22 23 23 22 22 21 20 20 20 20 21 21 21 21 20 20 20 20 20 20 20 21 21 22 23 22 22 22 22 20 19
41 40 40 40 38 37 36 35 34 33 31 30 29 27 25 24 24 24 25 25 25 25 26 26 26 26 27 27 25 23 24 25 26 25 26 27 28 28 27 27 26 25 23 22 21 21 20 20 21 21 22 23 24 25 25 25 25 24 24 24 23 22 21 23 24 24 24 24 23 22 22 23 23 23 24 24 25 26 26 25 26 25 23 22 21
43 43 43 43 42 41 41 39 36 34 33 33 32 29 26 25 25 24 24 24 24 24 25 25 26 27 28 29 27 26 26 26 27 27 28 29 29 29 29 29 28 27 26 26 26 25 25 24 24 24 24 25 26 27 27 27 27 26 26 26 24 23 23 25 26 26 26 26 25 25 25 25 25 26 26 27 27 28 28 28 28 27 25 24 23
46 46 45 45 45 45 45 43 38 35 35 35 34 31 28 26 25 24 24 25 25 24 25 26 26 27 29 30 31 30 29 28 28 29 30 31 32 31 31 31 29 28 28 29 29 29 29 28 28 28 27 28 29 29 29 29 28 28 28 27 24 24 25 28 28 27 27 26 26 26 26 27 28 27 27 28 28 28 28 27 28 28 26 26 26
49 49 48 48 48 49 49 47 44 41 40 38 36 33 31 30 29 27 26 26 27 27 27 27 27 27 28 31 33 33 32 32 32 33 33 34 34 34 33 32 31 30 30 31 31 31 31 31 31 31 31 31 31 31 31 31 30 30 29 28 25 26 28 29 28 28 27 26 25 25 26 27 28 28 28 29 29 29 27 27 27 27 27 26 27
51 51 51 51 51 51 51 50 48 47 45 43 40 37 34 33 32 31 29 29 29 29 30 29 28 27 28 29 31 33 35 36 36 36 35 35 35 35 35 34 33 33 33 33 32 32 32 33 33 33 34 34 34 34 33 32 32 32 31 29 28 29 30 30 29 28 28 26 26 26 26 26 27 28 28 29 30 29 28 26 26 26 25 26 26
51 52 52 53 53 53 53 52 51 49 48 48 46 43 40 37 34 32 31 32 32 31 30 30 29 29 30 30 31 34 37 37 35 32 31 32 32 32 33 34 34 35 36 35 34 34 34 34 35 35 36 36 36 36 35 34 34 33 32 31 31 32 31 30 30 29 28 28 28 28 28 28 27 28 28 29 29 29 28 27 26 26 25 24 25
51 52 53 53 54 54 54 54 53 51 50 50 49 48 46 43 40 36 33 32 32 33 31 30 30 31 32 32 34 36 36 35 32 28 27 29 31 32 33 34 35 37 38 37 36 35 35 36 36 37 37 36 37 37 37 36 35 34 33 34 34 34 33 31 30 30 30 30 30 30 31 30 29 28 29 29 30 29 29 27 27 27 27 26 25
52 52 53 53 54 55 55 55 55 54 52 52 51 50 48 47 45 44 40 37 36 35 34 32 31 32 33 34 35 35 33 32 32 30 29 30 33 35 35 35 35 37 38 38 37 37 37 38 38 38 37 37 37 37 38 37 36 35 35 35 36 36 35 33 32 32 32 32 33 33 33 32 31 31 31 31 31 30 30 30 29 28 27 27 27
52 52 53 53 54 55 55 56 56 55 55 54 53 51 50 48 47 47 46 43 41 39 37 35 33 32 32 33 33 33 32 31 32 32 33 34 35 35 35 35 35 36 37 38 38 38 39 41 40 39 39 38 37 38 38 37 37 37 36 36 37 37 36 36 36 36 35 35 35 34 33 33 33 32 32 32 31 31 31 32 31 30 29 28 27
54 53 54 54 54 55 55 55 56 56 56 55 54 53 52 50 49 49 49 47 45 43 41 39 37 34 33 32 31 31 31 31 32 34 36 36 36 35 36 37 37 37 36 36 36 37 40 41 42 41 40 40 38 37 37 37 38 37 37 37 37 37 38 38 38 38 37 36 36 34 33 33 33 32 32 32 31 31 32 31 31 31 31 30 28
56 55 55 55 56 56 56 56 56 56 56 56 55 55 53 52 51 50 50 49 48 46 45 43 41 39 37 35 34 33 32 31 33 35 37 37 37 36 36 37 39 39 37 36 35 36 38 41 42 42 41 40 39 37 36 36 38 38 37 37 37 37 38 39 39 38 37 36 35 34 33 33 32 31 31 30 29 30 31 30 29 29 30 30 27
59 58 58 58 58 58 57 57 57 57 57 56 56 55 55 54 52 51 51 51 50 48 48 46 45 43 42 39 37 35 33 33 35 36 36 36 36 37 36 36 37 39 39 38 36 35 36 38 40 40 39 39 37 36 36 36 37 38 37 37 37 37 38 38 38 37 36 35 34 33 31 30 29 28 28 27 26 27 29 29 28 27 28 27 25
62 61 61 60 60 60 60 60 59 59 58 57 57 56 56 55 54 52 52 51 51 50 49 48 47 46 45 43 40 38 36 36 37 38 37 36 37 38 38 36 35 35 38 39 39 36 35 36 37 37 36 36 36 36 36 36 37 37 37 37 37 37 36 36 35 34 34 33 31 29 29 28 27 27 26 25 25 26 27 27 27 27 27 26 25
65 64 64 64 63 63 63 62 62 61 60 59 59 58 58 57 56 54 53 53 53 52 50 49 48 47 46 45 43 42 40 39 40 41 41 40 40 41 40 38 35 33 35 39 40 37 35 33 33 33 33 33 33 33 34 35 36 37 36 36 35 34 33 32 32 31 31 30 28 27 28 27 26 26 26 25 25 26 27 27 27 27 27 26 25
67 66 67 67 66 66 66 65 65 64 64 63 61 60 60 59 59 57 56 55 54 54 53 51 50 49 48 46 44 44 43 42 42 43 43 43 43 43 43 41 37 33 33 37 38 37 35 32 30 30 31 31 30 31 32 33 34 35 34 32 31 30 30 30 30 30 29 28 27 27 28 27 27 27 27 26 26 27 27 28 28 27 27 27 26
69 68 68 68 69 69 69 68 68 67 67 66 65 64 62 61 61 60 60 59 58 57 56 54 52 51 50 48 46 45 45 44 45 45 45 45 44 44 43 43 39 36 37 38 35 33 34 34 31 30 31 30 29 29 31 31 32 32 31 29 28 29 29 30 31 32 32 31 30 30 29 28 28 28 28 29 29 29 29 29 29 29 29 28 27
70 70 70 70 70 70 70 70 70 70 70 69 69 67 66 64 63 62 62 63 62 60 58 57 55 54 53 51 49 47 47 47 47 46 46 47 46 45 43 41 39 38 41 40 36 33 33 34 33 32 32 30 28 29 31 32 32 32 30 29 29 30 31 32 35 35 35 34 34 33 31 31 30 30 31 32 32 31 29 28 29 30 31 30 30
71 71 72 72 72 72 72 72 72 72 72 71 71 71 70 68 67 65 64 64 65 64 63 61 59 57 55 54 53 51 49 49 49 48 48 48 47 46 44 41 38 38 41 41 38 36 35 34 33 33 32 30 29 29 31 33 33 32 30 29 30 31 33 35 36 35 35 35 35 35 35 35 35 34 34 34 33 31 30 31 33 33 33 32 32
71 72 72 73 74 74 73 73 73 73 73 73 72 73 72 72 71 69 67 66 66 66 66 65 64 61 59 57 56 54 53 51 51 51 51 51 49 47 46 42 39 39 41 41 39 38 38 36 35 34 33 32 30 30 31 33 34 33 31 31 31 32 34 35 36 36 36 37 38 39 40 40 38 35 33 33 33 33 34 37 40 39 37 36 35
72 72 73 74 75 75 75 75 75 75 74 74 74 74 74 73 73 72 71 70 69 68 68 68 67 66 63 61 59 58 57 55 54 54 54 54 52 50 48 46 43 42 42 42 40 39 39 39 38 37 36 35 34 32 32 32 33 34 33 33 33 34 35 36 36 37 38 41 43 45 45 43 40 37 35 35 37 38 38 40 43 43 41 39 40
74 74 74 75 76 76 77 77 77 76 76 76 76 75 75 75 74 74 73 73 72 71 70 70 70 69 68 65 63 61 60 60 59 57 57 56 55 53 51 49 47 45 44 43 43 41 40 39 40 41 40 38 37 37 36 35 35 36 37 37 37 37 38 38 39 40 42 46 48 49 47 44 40 37 37 39 41 42 41 42 44 44 42 41 41
75 75 76 76 77 78 78 78 78 78 78 78 77 77 77 76 76 75 75 74 74 73 72 72 72 71 71 70 68 66 64 63 63 61 60 59 58 57 55 52 50 48 46 46 45 44 43 41 41 42 43 42 41 40 40 41 41 42 42 42 42 42 41 42 43 46 48 50 50 49 48 46 43 39 37 40 43 45 45 45 46 46 44 43 42
74 76 76 77 78 79 79 80 80 80 80 79 79 79 79 78 78 77 77 76 75 75 74 73 74 73 73 72 72 70 69 67 66 65 64 62 61 60 58 56 53 51 49 48 48 48 46 44 43 43 44 45 45 44 44 44 45 45 45 45 45 45 45 46 48 49 48 49 50 49 48 48 46 44 44 44 45 46 47 47 47 46 44 43 42
73 75 76 77 79 79 80 81 81 81 81 81 81 81 81 80 80 79 79 78 77 77 76 75 75 75 75 74 74 74 72 71 69 67 67 66 64 63 62 59 57 54 52 51 50 50 49 48 46 45 45 46 48 49 48 48 46 45 44 45 45 45 46 47 48 47 47 48 49 47 45 44 44 46 47 47 46 46 47 48 47 46 44 43 43
74 75 76 77 79 80 81 81 82 82 83 83 83 83 82 82 82 82 81 81 80 79 78 77 75 75 75 76 76 76 75 73 72 70 69 68 67 66 65 62 60 58 56 53 51 51 50 49 48 48 47 48 49 51 51 50 48 46 45 46 46 46 46 47 48 49 50 51 51 48 44 43 44 47 49 48 46 45 45 45 45 44 43 43 42
75 76 76 77 79 80 81 82 82 83 83 83 84 84 84 84 84 83 83 83 82 81 80 79 78 77 77 77 77 77 76 76 75 73 72 71 70 69 68 66 63 61 59 56 53 52 51 49 49 50 49 49 50 51 52 51 50 49 49 48 48 48 48 48 49 50 52 53 52 49 46 44 45 46 46 46 45 44 42 41 41 40 40 40 40
73 74 75 76 77 79 80 81 82 83 83 84 84 84 85 85 85 85 85 85 84 84 83 83 82 81 80 79 78 77 77 77 77 75 74 73 73 72 71 69 67 63 61 59 57 55 53 51 51 51 51 51 51 52 53 52 51 51 52 52 51 51 51 50 49 50 51 52 51 50 48 48 48 47 45 45 45 45 43 41 40 40 40 41 42
69 70 71 73 74 75 76 78 80 81 82 83 83 83 84 85 85 86 86 86 87 87 86 85 84 83 82 81 79 78 78 78 77 76 76 75 75 74 73 72 70 67 64 62 60 58 56 54 52 52 52 52 52 53 53 54 53 53 53 53 52 52 52 51 51 52 53 53 52 50 50 50 51 49 48 47 47 48 46 44 43 44 45 45 45
63 65 66 67 69 70 70 72 73 75 77 79 81 82 83 83 84 85 85 87 88 88 87 86 85 85 84 83 81 80 80 79 78 77 76 76 76 76 75 74 73 71 68 66 63 61 59 57 55 54 53 54 54 54 54 54 55 56 55 55 53 52 52 52 52 53 54 54 53 51 50 50 50 50 48 48 49 49 48 47 46 47 48 48 46
54 56 58 59 61 62 63 64 65 67 70 73 76 77 79 80 81 82 83 84 86 86 87 87 86 86 85 85 84 83 82 81 80 78 78 77 77 77 76 75 75 73 71 69 66 64 62 60 58 56 55 55 55 55 55 55 55 56 56 56 55 53 52 51 52 52 53 53 53 52 51 51 51 51 50 50 50 50 49 49 49 48 48 49 47
45 46 48 50 51 52 54 56 57 59 62 65 68 71 73 75 77 78 80 81 83 84 85 86 87 87 87 86 86 84 83 83 82 80 80 79 78 78 77 76 76 75 73 71 69 67 65 63 61 59 57 57 56 56 57 56 56 55 55 56 56 54 53 52 51 51 52 52 52 52 52 51 52 52 52 52 52 52 51 50 50 49 49 49 49
39 40 42 43 44 45 47 48 50 52 54 57 60 63 65 67 70 72 74 76 78 80 82 83 85 85 86 86 85 85 84 84 83 82 82 80 79 79 78 77 76 76 74 73 71 69 67 66 64 62 60 59 58 58 58 58 57 56 55 55 55 55 54 53 52 52 52 53 53 53 53 53 54 53 52 52 53 53 54 53 52 51 51 51 50
37 38 39 40 41 42 43 44 45 47 48 50 52 54 56 59 60 61 64 67 70 73 75 77 79 80 80 81 82 83 84 84 84 84 83 82 81 80 79 78 77 76 75 74 72 71 69 67 66 64 62 61 61 60 60 59 58 57 56 55 54 54 54 54 54 53 53 53 54 54 54 55 55 55 54 53 52 52 52 53 53 52 52 52 51
37 37 38 39 40 41 41 42 43 43 44 45 46 47 49 51 51 53 57 61 63 64 66 68 69 71 72 74 77 81 83 84 84 84 83 83 82 81 80 79 78 77 76 75 73 72 71 69 67 66 64 63 62 61 61 60 59 58 57 56 55 55 55 54 53 53 53 54 54 55 55 55 54 54 53 52 51 51 51 51 51 51 51 51 50
36 36 37 38 40 40 41 41 41 41 42 43 44 45 46 47 49 52 56 59 58 58 59 60 61 62 64 67 71 75 79 81 83 84 83 83 83 82 81 80 79 78 77 75 74 73 72 70 69 67 66 64 63 61 60 59 59 58 57 56 55 55 55 54 53 53 54 55 56 56 56 55 53 52 52 51 51 51 51 51 50 50 51 51 50
Wind_Direction
234 229 227 226 226 225 222 220 221 227 232 233 232 232 231 228 225 221 220 224 230 236 239 236 229 224 227 232 234 233 233 232 231 225 218 211 203 199 199 193 188 184 184 187 187 189 194 196 199 203 206 210 213 216 219 219 221 224 227 227 227 225 222 220 216 215 217 222 226 230 232 238 244 248 251 254 260 265 268 270 272 272 272 278 287
236 233 231 228 227 224 223 225 226 226 229 233 235 236 236 234 231 226 222 222 226 233 240 242 237 229 227 231 233 235 234 232 232 228 222 216 209 204 202 199 195 191 191 192 191 195 200 201 204 206 206 209 212 215 220 222 225 229 232 233 236 238 239 238 237 234 232 232 234 237 241 246 252 256 261 265 268 272 275 277 279 281 280 276 276
228 230 232 231 227 220 217 222 228 228 227 230 233 237 239 238 237 233 228 225 225 228 235 241 242 236 231 231 232 234 235 234 233 232 227 220 215 210 207 205 204 199 198 199 197 198 202 205 208 210 209 209 210 213 218 222 226 229 233 236 239 242 246 247 248 247 246 245 245 246 248 252 256 261 266 271 273 275 278 281 282 284 285 284 279
225 226 227 228 226 221 216 219 225 228 229 230 232 235 239 239 239 238 234 231 230 230 232 235 240 240 235 232 231 232 234 234 235 235 231 225 218 214 211 210 210 209 207 205 203 203 205 207 210 212 212 212 213 214 217 220 223 225 227 232 237 241 244 248 251 253 254 255 255 254 255 258 261 264 267 270 273 275 277 279 282 284 285 287 285
225 221 222 224 225 224 224 223 225 228 230 232 233 233 237 238 240 240 238 235 234 234 234 234 236 239 237 234 232 231 231 232 235 236 234 229 223 218 216 214 213 213 213 211 209 209 209 211 213 215 216 218 218 219 222 223 225 225 227 230 232 236 240 244 247 250 253 256 258 258 258 260 262 264 266 268 270 273 276 279 282 285 286 288 290
221 218 221 224 223 223 225 224 225 228 231 234 234 234 236 237 238 239 239 239 237 236 236 235 234 235 236 236 234 232 231 231 234 237 236 233 228 222 220 218 216 215 216 214 213 213 213 214 217 219 219 220 222 225 226 228 230 230 231 233 234 236 240 243 246 248 250 254 257 259 260 261 263 265 267 269 271 273 277 280 283 285 286 289 294
223 221 222 224 223 222 223 224 226 228 229 233 235 236 237 237 236 236 235 237 238 237 237 237 236 235 234 235 235 235 233 231 234 238 238 236 232 227 224 223 221 220 218 217 215 215 216 217 219 221 221 221 224 226 227 229 232 234 234 235 237 238 240 242 244 246 248 252 254 257 259 261 263 267 270 273 276 279 280 281 282 286 291 294 298
224 222 221 226 226 224 224 225 227 228 228 231 234 236 238 237 236 235 232 232 234 236 236 237 237 237 235 234 235 236 236 233 234 236 238 239 236 231 227 226 225 225 223 221 219 217 218 218 220 222 223 223 224 226 227 227 228 231 232 234 236 238 239 240 242 244 246 250 254 255 259 260 262 266 271 273 276 279 279 279 281 287 294 301 304
224 224 225 228 228 227 225 225 227 228 228 228 229 233 236 237 237 238 234 232 232 233 234 235 237 238 238 235 234 235 236 236 235 236 236 238 239 236 232 229 227 227 227 227 225 222 221 221 221 222 223 225 227 228 228 228 229 231 232 233 236 239 241 242 244 247 250 254 258 260 262 263 262 264 269 272 270 267 268 270 275 281 288 295 300
240 239 235 233 233 232 230 229 231 234 234 234 232 233 236 238 241 243 242 241 238 236 235 234 235 236 237 237 235 234 235 236 237 238 238 239 240 239 236 233 230 229 230 230 230 229 228 226 225 223 224 227 229 230 230 232 234 235 235 238 242 245 249 251 253 255 258 261 264 266 267 268 268 270 274 277 275 268 266 268 272 277 283 289 294
258 253 246 241 241 240 238 238 239 240 242 242 240 239 238 237 239 240 242 245 245 243 243 240 239 239 237 237 235 234 234 236 237 239 241 242 242 241 239 236 233 230 231 232 233 233 233 232 230 227 226 228 232 233 233 235 239 242 244 245 249 253 256 258 261 264 266 268 269 270 272 273 276 279 280 282 283 278 272 271 273 278 284 290 295
258 254 249 246 245 246 248 249 247 245 247 246 244 243 241 242 244 245 245 246 245 243 245 244 244 245 244 242 239 236 234 236 238 239 241 243 244 242 239 237 234 231 230 232 233 235 236 235 234 232 230 230 233 236 237 238 242 246 250 251 252 255 258 262 266 270 272 273 275 276 277 279 283 287 286 286 288 286 282 279 280 283 287 293 299
259 257 253 250 248 248 250 250 247 249 253 253 249 246 244 244 247 247 248 249 247 244 243 243 244 246 247 248 248 245 241 239 239 239 241 242 243 242 241 238 236 232 230 231 233 235 236 237 237 235 234 233 235 237 240 242 243 246 249 253 255 256 259 264 268 272 275 276 277 278 281 284 286 287 288 288 288 287 287 287 287 288 290 293 297
258 258 257 256 256 255 253 250 248 250 256 256 248 243 244 245 244 243 245 248 248 245 241 242 244 244 243 245 247 248 248 246 243 242 243 244 244 242 241 239 238 236 234 232 233 235 236 238 238 237 236 236 237 238 240 244 246 246 247 250 254 258 261 265 269 273 276 277 278 279 282 286 288 288 289 289 287 286 286 287 289 290 290 292 295
257 258 258 259 259 259 258 256 256 257 258 256 249 245 247 248 244 242 246 247 247 245 241 240 241 239 238 239 240 243 247 248 247 245 246 247 247 244 242 240 240 241 241 239 238 237 238 239 240 241 241 240 240 240 241 244 247 249 249 249 252 256 261 265 268 271 274 277 279 280 282 286 288 288 289 289 289 288 286 285 286 287 287 290 293
257 258 258 259 260 262 262 260 260 260 260 258 256 255 256 253 242 237 243 248 249 250 247 245 243 241 240 242 242 242 246 249 249 247 247 249 249 248 245 243 243 244 245 245 244 243 243 242 242 243 244 244 244 244 244 245 247 250 252 253 253 256 260 265 268 270 272 275 277 279 282 284 286 287 287 288 288 287 286 286 286 284 285 289 292
257 258 258 259 259 260 260 259 257 258 259 259 259 259 261 260 250 239 239 245 249 253 254 253 250 246 246 247 244 241 245 249 250 250 249 249 251 251 249 246 244 244 244 246 247 247 247 246 244 244 244 246 247 247 248 249 249 251 253 254 256 258 261 265 268 271 273 276 277 279 280 282 283 285 286 287 287 285 284 284 284 282 283 286 288
255 257 258 259 259 258 258 257 257 257 258 259 259 259 259 259 257 251 245 243 246 251 252 253 253 249 246 245 241 236 238 244 248 250 250 250 250 251 251 249 246 244 244 244 245 245 246 246 246 245 245 247 248 249 251 252 253 254 255 257 259 261 264 266 268 270 273 276 279 281 282 283 283 283 284 284 284 283 282 283 283 283 284 285 284
255 256 257 258 259 259 259 260 259 257 256 256 256 258 257 254 253 253 251 245 243 243 242 243 246 246 243 240 237 234 235 238 242 245 247 248 248 248 249 249 248 247 246 245 244 245 246 247 248 248 248 249 250 252 253 255 257 258 260 262 264 265 266 266 268 271 273 275 277 280 282 283 283 284 283 283 281 280 280 281 282 285 287 287 287
254 255 256 257 258 259 260 261 260 258 257 256 255 255 255 252 249 251 251 248 244 241 239 238 240 241 240 239 238 237 236 236 238 239 240 243 246 247 248 248 249 250 248 246 246 246 247 248 250 251 251 251 252 253 255 257 259 261 263 266 267 266 265 266 269 271 273 275 276 277 278 279 280 281 281 281 281 281 282 282 283 285 286 287 287
251 253 254 255 257 258 259 260 260 259 258 257 255 255 255 254 253 253 254 253 250 247 244 242 241 241 240 239 240 240 238 237 237 239 241 243 245 246 246 246 246 248 249 248 248 248 248 249 251 251 252 253 254 255 256 258 260 262 265 268 268 267 267 268 270 271 273 275 276 276 276 276 276 278 279 280 281 283 284 285 285 285 286 286 286
249 250 252 253 254 256 257 258 259 259 259 258 257 257 256 256 255 252 251 252 251 249 248 247 246 245 243 240 239 240 241 241 242 245 248 250 251 252 251 250 248 248 247 248 249 249 249 250 251 252 253 255 256 258 259 260 261 264 266 268 268 268 269 270 271 273 274 275 275 275 275 274 275 277 278 280 281 282 283 285 285 285 284 284 284
248 248 249 251 252 253 254 255 256 257 258 259 259 258 257 256 254 251 250 251 252 250 248 247 247 247 246 244 242 243 244 247 251 254 255 255 255 254 253 253 253 252 250 248 249 250 251 251 252 254 255 257 259 261 262 263 264 266 267 268 269 270 271 272 273 274 274 274 274 274 275 276 277 277 278 278 279 280 282 283 283 284 284 284 283
247 248 248 249 250 251 253 253 254 255 256 257 258 258 258 257 255 253 252 253 256 255 251 247 247 247 246 246 247 249 249 249 251 254 253 250 249 249 249 249 252 253 254 252 250 250 250 251 252 253 256 258 260 262 264 266 268 269 270 271 272 273 275 275 274 273 273 272 272 273 275 277 278 278 277 277 278 279 280 280 279 279 280 282 283
247 247 248 249 249 250 251 252 253 254 255 255 256 256 257 257 257 256 255 254 256 258 255 251 248 246 246 247 250 252 252 251 251 252 251 249 248 247 247 248 249 251 253 254 254 252 251 252 252 252 253 255 257 260 263 266 268 270 271 272 274 275 276 275 274 273 273 273 273 274 276 277 277 277 278 278 278 279 279 279 279 279 278 276 277
248 247 248 249 249 250 250 251 252 253 253 254 255 255 255 254 255 256 257 256 256 256 255 254 253 251 250 250 251 252 252 253 254 255 255 254 252 250 249 250 251 251 252 254 255 255 255 254 254 254 254 255 256 258 261 264 267 268 270 271 273 274 275 274 274 274 274 274 275 275 275 275 276 277 277 277 278 278 278 278 279 280 280 278 275
250 249 249 249 250 250 251 251 252 252 253 253 254 255 255 255 254 254 256 257 256 255 255 254 255 255 254 253 254 254 254 254 255 257 259 259 257 255 254 254 253 253 253 253 252 252 253 254 254 254 254 255 256 258 261 264 266 267 268 269 270 271 272 273 273 274 275 275 275 274 273 274 274 274 274 275 276 277 277 278 279 279 280 281 281
252 252 251 250 250 251 251 252 252 253 253 254 254 254 255 255 255 255 255 257 257 257 256 255 254 253 254 255 257 258 258 257 256 258 261 262 260 258 257 257 256 254 253 254 254 252 251 253 255 254 253 253 253 254 255 259 262 264 266 266 267 268 269 271 273 274 274 273 272 272 272 272 272 271 271 272 273 274 275 277 279 280 280 282 283
253 253 252 252 251 252 252 253 253 253 253 254 255 256 256 255 255 256 256 257 257 257 257 257 256 254 253 254 255 256 258 258 257 259 263 265 264 261 258 257 259 259 256 255 256 256 255 256 257 256 252 251 252 251 251 253 257 260 261 262 264 266 268 270 271 270 269 268 268 268 269 269 268 268 268 268 268 269 271 274 276 278 280 282 284
254 254 254 253 252 252 252 253 253 253 254 254 254 255 256 256 256 255 255 255 256 257 257 256 256 256 255 255 254 254 255 256 258 260 263 265 266 266 264 260 260 263 262 257 255 258 260 260 261 258 255 255 256 254 252 252 253 255 255 257 260 264 266 266 265 263 263 263 264 265 266 266 266 266 267 266 265 266 268 271 272 274 276 279 282
254 254 254 254 254 253 253 253 253 253 254 254 253 253 254 255 256 256 255 254 254 255 256 256 256 256 256 256 256 256 256 256 258 260 262 264 265 267 268 266 265 265 264 258 256 258 260 261 261 261 260 260 260 255 250 248 249 250 252 254 257 258 258 258 257 256 258 260 263 265 266 266 266 265 266 267 268 268 268 270 272 273 274 277 279
254 254 254 254 254 254 254 253 253 253 253 253 254 253 253 253 254 255 256 255 254 253 254 254 255 255 256 256 256 257 257 257 257 258 260 262 264 264 266 268 270 269 265 261 260 260 259 256 256 258 259 259 256 250 244 242 242 245 247 250 252 252 251 251 252 255 258 261 263 265 265 264 263 264 267 269 269 268 268 270 273 276 277 278 280
253 253 253 254 254 254 254 254 253 253 253 253 253 253 253 252 252 253 254 256 256 255 254 253 253 254 255 255 255 256 257 257 257 257 259 260 262 264 265 266 269 270 268 266 264 263 262 258 254 254 256 255 250 244 241 240 239 240 242 244 246 248 249 250 253 256 259 261 261 261 261 261 260 261 264 265 265 267 271 274 277 278 278 279 279
254 253 253 253 253 253 253 254 254 254 253 253 253 254 253 253 252 251 252 253 255 256 255 254 253 252 253 254 255 255 255 256 258 258 258 259 260 262 263 265 266 267 268 268 266 264 264 264 258 252 251 251 246 242 243 245 246 244 243 242 243 245 248 251 254 257 258 258 258 259 259 258 256 256 259 263 267 272 275 275 273 271 270 270 270
255 254 254 253 253 252 252 253 253 253 253 253 253 253 254 253 253 252 251 252 253 254 256 256 255 253 252 252 253 254 255 255 256 257 258 258 259 260 261 262 263 264 265 267 267 264 263 265 263 257 251 249 246 244 244 247 250 250 249 247 246 247 249 251 254 255 256 256 256 256 256 256 256 256 259 264 268 269 270 270 269 268 267 267 268
256 256 255 255 254 253 252 252 252 252 253 253 253 253 253 253 253 253 252 252 252 252 254 255 256 255 254 252 251 252 253 254 254 255 257 258 259 259 259 260 261 261 262 264 265 264 262 262 264 263 258 253 249 248 247 247 249 250 250 250 251 252 254 255 256 257 258 258 257 256 257 259 262 263 264 265 265 265 265 268 269 270 271 273 273
259 258 257 257 256 255 254 253 252 252 252 252 252 252 252 252 252 253 253 253 252 252 253 254 255 255 255 254 252 251 251 252 253 254 255 256 257 258 258 259 259 260 261 261 262 263 262 261 261 262 262 259 254 251 249 248 250 252 253 254 255 257 259 261 262 261 260 259 258 259 262 266 269 271 271 270 269 268 267 269 271 273 274 275 275
261 260 259 259 258 257 256 255 254 253 253 252 252 252 252 251 251 252 252 252 253 252 252 253 254 254 255 255 254 252 251 251 252 253 254 255 256 256 257 258 259 260 260 261 261 261 260 260 259 259 260 261 258 255 252 251 251 253 254 256 258 260 262 265 265 263 261 261 262 266 270 275 279 281 279 276 274 272 271 271 272 273 275 276 277
263 262 261 260 260 259 258 257 256 254 253 253 253 253 253 252 251 251 251 251 251 252 252 252 253 253 254 254 255 254 253 252 252 253 253 254 255 256 256 256 257 258 259 260 261 260 259 258 257 256 257 258 258 257 256 255 254 254 255 256 259 261 263 265 265 264 265 267 270 272 274 277 280 282 280 277 274 274 274 273 273 274 275 277 278
264 263 262 262 261 260 259 258 257 256 255 254 253 253 253 253 252 252 251 250 250 250 251 251 252 253 253 253 254 254 254 253 253 253 254 254 255 255 256 255 255 256 257 258 260 261 261 260 258 257 256 256 257 257 258 258 258 259 260 260 261 262 264 266 267 268 269 270 271 273 276 279 280 281 282 282 281 278 275 273 273 274 275 275 275
265 264 264 263 262 261 260 259 259 258 257 256 255 254 253 253 253 252 252 251 250 250 250 250 250 251 252 253 253 253 254 254 253 253 254 254 255 255 255 255 255 254 255 256 258 260 261 262 261 259 257 256 255 256 257 258 260 261 262 262 262 262 263 265 267 269 269 270 273 275 277 279 279 279 281 284 286 284 278 274 272 273 275 276 275
266 265 265 264 263 262 261 260 260 259 258 257 256 255 254 253 253 253 252 252 251 250 249 249 249 249 250 251 252 253 253 253 253 253 253 254 255 256 256 256 255 254 254 255 255 256 258 259 259 259 258 256 255 254 254 256 257 257 258 258 259 260 262 264 267 269 270 272 275 277 278 278 277 276 277 280 283 285 281 276 274 275 279 281 281
266 265 265 264 263 263 262 261 260 259 259 258 257 256 255 254 253 253 252 252 251 250 249 249 248 248 249 249 250 251 252 253 253 253 253 254 255 255 256 256 256 255 254 254 254 253 254 255 256 257 257 257 256 255 254 254 255 256 257 257 259 260 262 264 266 269 271 272 274 276 277 277 277 276 277 278 279 280 279 277 275 276 278 280 281
264 263 263 263 262 262 261 261 260 259 258 258 257 256 255 255 254 253 252 252 251 251 250 249 249 248 248 249 249 250 251 252 253 253 253 253 254 254 255 256 257 256 255 255 254 252 252 252 253 254 255 255 256 257 257 256 255 256 258 259 260 261 262 263 265 267 269 271 273 274 275 276 276 276 276 276 276 276 276 276 276 275 275 276 278
263 262 262 261 261 261 261 260 259 258 257 256 255 255 255 254 254 253 252 252 252 251 251 250 250 249 249 248 248 248 249 250 251 252 252 253 253 253 254 255 256 256 256 255 255 254 252 251 251 252 253 254 255 257 258 258 258 258 259 260 261 262 263 264 265 266 268 270 271 273 273 274 275 275 275 274 274 274 273 272 271 270 272 275 278
264 263 263 262 261 261 260 259 258 257 256 255 254 254 253 253 253 253 252 252 251 251 251 250 250 249 249 248 248 248 248 248 249 250 251 252 252 252 252 253 255 256 256 256 255 255 254 253 251 250 251 252 254 255 257 258 260 260 261 261 262 263 265 266 266 266 267 269 271 272 273 273 275 275 275 273 272 272 271 270 270 271 275 277 278
266 264 263 262 261 260 259 258 257 256 255 254 253 252 251 251 251 251 251 250 250 250 249 249 249 249 249 248 248 248 248 248 248 248 249 250 251 251 252 252 253 254 255 255 255 256 255 255 253 252 251 251 252 254 255 257 259 261 262 263 263 264 265 266 267 266 267 268 270 272 272 273 273 273 273 274 274 275 276 277 276 276 278 280 281
265 263 262 261 260 258 257 256 255 253 252 252 251 250 249 248 248 248 248 248 248 248 248 248 248 248 248 248 248 248 247 247 247 247 248 248 249 250 251 251 251 252 253 254 255 255 255 255 255 254 252 252 252 253 255 257 259 260 262 263 263 264 265 266 267 266 266 267 269 270 272 272 271 270 272 275 276 277 279 281 281 279 280 282 284
264 262 261 260 259 257 256 254 253 251 250 250 249 248 247 246 246 246 246 246 245 245 246 246 247 246 246 246 247 246 246 246 246 246 246 247 247 248 249 250 250 251 251 252 253 254 255 255 255 255 254 253 253 253 255 256 258 260 261 262 263 263 264 265 266 266 266 267 268 269 270 271 271 271 272 274 275 276 278 280 281 281 281 283 284
264 262 260 259 258 257 255 253 252 250 250 249 248 247 246 244 242 242 243 244 244 243 243 244 244 245 245 245 245 245 245 245 245 245 245 245 246 247 247 248 249 250 250 250 251 252 254 254 255 255 255 255 254 254 256 257 258 258 260 261 262 262 263 263 264 265 265 266 267 268 269 269 270 271 271 272 273 275 276 277 279 280 281 281 281
267 264 261 259 257 255 254 253 252 251 250 249 247 245 244 243 240 238 239 242 243 242 242 242 243 244 245 245 245 245 244 244 244 244 244 244 244 245 245 246 247 248 248 249 249 250 252 253 254 254 255 255 255 254 255 256 257 257 258 259 260 260 261 262 263 264 265 265 266 267 268 268 269 270 271 271 272 273 274 274 275 276 278 278 279